FENGYUN 1C DEB, 32311

Orbit data source: Space-Track

FENGYUN 1C DEB, 32311 is space debris in SSO originally from a launch on Mon, 10 May 1999 UTC launched from the Taiyaun Space Center, China (TSC). Fengyun 1C debris stems from the Chinese weather satellite Fengyun-1C, which was intentionally destroyed by a Chinese anti-satellite missile in 2007. This event dramatically increased the amount of space debris, with thousands of trackable fragments posing hazards to satellites and human spaceflight. The Fengyun 1C debris cloud has become a focal point in discussions about space sustainability and the need for international regulations to prevent the creation of new debris.

Loading next visibility...
Identifier
32311, 1999-025CXC
Orbit
SSO
Country
Flag of CNCN / PRC
Related business
Manufacturer
Unknown
Mission
Spacecraft
Bus & Motor
Unknown
Mass
Unknown
Launch date (UTC)
1999-05-10 (27 years ago)
Launch vehicle
Unknown
Launch site
Taiyaun Space Center, China (TSC)
Object type
Payload
Rocket body
Debris
Shape & HBR
Unknown shape, 0.1 m
Radar Cross Section
Medium (>0.1 m² and <1 m²)

Expand to show TLE details & history
Last TLE update: 4 days ago

TLE from 4 days ago
0 FENGYUN 1C DEB
1 32311U 99025CXC 26164.98647145  .00001496  00000-0  19443-2 0  9991
2 32311 101.7451  80.1156 0408972  44.0918 319.2057 13.34091287 97807
Epoch: 2026-06-13T23:40Z
TLE epoch observation values (Epoch: 2026-06-13T23:40:31.133Z)
Latitude
0.00004°
Longitude
-177.30782°
Altitude
907.132 km
Speed
7.509 km/s
True Right ascension
05h 20m 27s
True Declination
0° 00' 00"
Sunlit
Object was in daylight at epoch
Visualization orbit readout
Latitude
Unknown
Longitude
Unknown
Altitude
Unknown
Speed
Unknown
Apparent Right ascension
Unknown
Apparent Declination
Unknown
Sunlit
N/A
Visualization observer readout
Local Sidereal Time
23:30:29
Azimuth
Unknown
Elevation
Unknown
Doppler factor
Unknown
Orbital elements
Apogee altitude
1,435.815 km
Perigee altitude
821.789 km
Semi-major axis
7,506.939 km
Eccentricity
0.0409
Inclination
101.7451°
RAAN
80.1156°
Arg. of periapsis
44.0918°
True anomaly
316.0224°
Mean anomaly
319.2057°
Eccentric anomaly
317.62645°
Mean motion
3.33694 °/min
Orbital period
107.88 mins
BSTAR
0.0019443
Loading maneuver chart data...
Computing Atmospheric mass density...

Documentation

Showing up to 5 results
|